GW1821 Weather Reports


Display with metric or nautical units.
time (UTC)temp
F
wind
direction
speed
MPH
gust
MPH
rain 1hr
in
rain 24hr
in
rain mn
in
humidity
%
barometer
mb
20260507025633 43 253 1.0 3.0 0.00 0.00 0.00 57 1012.2
20260507025131 43 253 1.0 4.0 0.00 0.00 0.00 56 1012.3
20260507024633 43 253 1.0 4.0 0.00 0.00 0.00 56 1012.4
20260507024117 43 255 1.0 4.0 0.00 0.00 0.00 56 1012.3
20260507023612 44 255 0.0 3.0 0.00 0.00 0.00 56 1012.3
20260507023329 44 255 0.0 1.0 0.00 0.00 0.00 55 1012.3
20260507022611 44 255 0.0 2.0 0.00 0.00 0.00 54 1012.3
20260507022112 44 255 0.0 2.0 0.00 0.00 0.00 54 1012.4
20260507021605 44 255 0.0 4.0 0.00 0.00 0.00 54 1012.4
20260507021110 44 255 1.0 4.0 0.00 0.00 0.00 54 1012.4
20260507020827 44 255 1.0 4.0 0.00 0.00 0.00 54 1012.4
20260507020059 44 255 1.0 4.0 0.00 0.00 0.00 53 1012.3
20260507015559 44 256 1.0 3.0 0.00 0.00 0.00 53 1012.3
20260507015056 44 255 2.0 5.0 0.00 0.00 0.00 53 1012.2
20260507014542 44 254 2.0 7.0 0.00 0.00 0.00 53 1012.2
20260507014044 44 301 2.0 7.0 0.00 0.00 0.00 52 1012.2
20260507013545 44 281 2.0 6.0 0.00 0.00 0.00 53 1012.3
20260507013041 45 327 2.0 7.0 0.00 0.00 0.00 53 1012.2
20260507012540 45 266 3.0 9.0 0.00 0.00 0.00 52 1012.2
20260507012041 45 253 3.0 9.0 0.00 0.00 0.00 52 1012.3
20260507011755 45 277 3.0 11.0 0.00 0.00 0.00 52 1012.2
20260507011258 45 264 3.0 11.0 0.00 0.00 0.00 52 1012.3
20260507011006 45 260 2.0 9.0 0.00 0.00 0.00 52 1012.3
20260507010254 45 277 1.0 5.0 0.00 0.00 0.00 53 1012.3
20260507005522 45 236 1.0 5.0 0.00 0.00 0.00 52 1012.3
20260507005017 45 275 1.0 4.0 0.00 0.00 0.00 51 1012.3
20260507004518 45 285 1.0 4.0 0.00 0.00 0.00 52 1012.3
20260507004018 45 285 2.0 5.0 0.00 0.00 0.00 51 1012.3
20260507003519 45 264 2.0 5.0 0.00 0.00 0.00 51 1012.3
20260507003012 45 297 2.0 7.0 0.00 0.00 0.00 50 1012.3
20260507002739 45 275 2.0 7.0 0.00 0.00 0.00 50 1012.4
20260507002013 45 311 2.0 6.0 0.00 0.00 0.00 51 1012.4
20260507002006 45 321 2.0 5.0 0.00 0.00 0.00 51 1012.5
20260507001230 45 302 2.0 5.0 0.00 0.00 0.00 51 1012.4
20260507000510 45 293 2.0 8.0 0.00 0.00 0.00 50 1012.5
20260507000010 45 315 3.0 8.0 0.00 0.00 0.00 50 1012.5
20260506235506 45 300 3.0 7.0 0.00 0.00 0.00 50 1012.5
20260506235006 45 302 2.0 7.0 0.00 0.00 0.00 50 1012.5
20260506234727 45 5 2.0 8.0 0.00 0.00 0.00 50 1012.5
20260506234005 45 236 3.0 8.0 0.00 0.00 0.00 50 1012.6
20260506233506 46 292 3.0 9.0 0.00 0.00 0.00 50 1012.6
20260506233000 46 262 3.0 9.0 0.00 0.00 0.00 51 1012.7
20260506232453 46 290 3.0 9.0 0.00 0.00 0.00 51 1012.7
20260506231949 46 279 3.0 11.0 0.00 0.00 0.00 51 1012.7
20260506231707 46 263 3.0 11.0 0.00 0.00 0.00 52 1012.7
20260506230947 46 217 2.0 7.0 0.00 0.00 0.00 51 1012.7
20260506230447 46 254 3.0 9.0 0.00 0.00 0.00 51 1012.7
20260506230435 46 325 3.0 9.0 0.00 0.00 0.00 51 1012.7
20260506225440 46 268 3.0 10.0 0.00 0.00 0.00 51 1012.7
20260506224943 46 220 3.0 10.0 0.00 0.00 0.00 51 1012.8
20260506224439 46 299 2.0 8.0 0.00 0.00 0.00 51 1012.8
20260506224157 46 295 2.0 8.0 0.00 0.00 0.00 50 1012.8
20260506223437 46 275 2.0 8.0 0.00 0.00 0.00 50 1012.8
20260506222931 46 240 3.0 10.0 0.00 0.00 0.00 51 1012.8
20260506222430 46 279 3.0 10.0 0.00 0.00 0.00 51 1012.8
20260506221930 46 283 3.0 9.0 0.00 0.00 0.00 52 1012.8
20260506221428 46 302 3.0 10.0 0.00 0.00 0.00 51 1012.8
20260506220926 46 340 3.0 10.0 0.00 0.00 0.00 51 1012.9
20260506220426 46 221 4.0 11.0 0.00 0.00 0.00 51 1012.9
20260506215923 46 229 4.0 11.0 0.00 0.00 0.00 51 1012.9
20260506215421 45 233 4.0 10.0 0.00 0.00 0.00 52 1012.9
20260506214919 45 224 4.0 10.0 0.00 0.00 0.00 52 1013.0
20260506214419 45 263 3.0 7.0 0.00 0.00 0.00 52 1013.0
20260506213919 45 290 3.0 10.0 0.00 0.00 0.00 52 1013.1
20260506213416 45 265 4.0 11.0 0.00 0.00 0.00 52 1013.2
20260506213132 45 301 4.0 11.0 0.00 0.00 0.00 52 1013.1
20260506212635 45 294 3.0 9.0 0.00 0.00 0.00 52 1013.2
20260506211915 45 277 2.0 8.0 0.00 0.00 0.00 52 1013.2
20260506211414 45 269 3.0 15.0 0.00 0.00 0.00 53 1013.2
20260506210915 45 350 4.0 15.0 0.00 0.00 0.00 52 1013.2
20260506210412 45 286 4.0 11.0 0.00 0.00 0.00 52 1013.3
20260506205906 45 294 3.0 10.0 0.00 0.00 0.00 52 1013.3
20260506205402 45 317 3.0 11.0 0.00 0.00 0.00 53 1013.3
20260506204859 45 262 4.0 11.0 0.00 0.00 0.00 53 1013.4
20260506204400 45 288 3.0 10.0 0.00 0.00 0.00 56 1013.4
20260506203853 44 315 3.0 10.0 0.00 0.00 0.00 55 1013.4
20260506203351 44 208 3.0 10.0 0.00 0.00 0.00 53 1013.4
20260506202850 44 251 3.0 11.0 0.00 0.00 0.00 54 1013.4
20260506202353 44 273 4.0 11.0 0.00 0.00 0.00 53 1013.5
20260506201852 44 246 3.0 9.0 0.00 0.00 0.00 54 1013.5
20260506201607 44 298 4.0 12.0 0.00 0.00 0.00 53 1013.5
20260506200847 44 265 4.0 12.0 0.00 0.00 0.00 54 1013.4
20260506200611 44 271 4.0 10.0 0.00 0.00 0.00 54 1013.5
20260506195841 44 304 4.0 10.0 0.00 0.00 0.00 54 1013.5
20260506195342 44 283 4.0 9.0 0.00 0.00 0.00 54 1013.5
20260506195055 44 292 3.0 12.0 0.00 0.00 0.00 54 1013.5
20260506194334 44 286 3.0 12.0 0.00 0.00 0.00 54 1013.6
20260506193832 44 265 3.0 7.0 0.00 0.00 0.00 54 1013.5
20260506193323 44 293 4.0 9.0 0.00 0.00 0.00 54 1013.6
20260506192827 44 302 5.0 11.0 0.00 0.00 0.00 55 1013.6
20260506192538 44 326 3.0 13.0 0.00 0.00 0.00 56 1013.6
20260506192038 44 351 2.0 13.0 0.00 0.00 0.00 54 1013.7
20260506191316 43 242 4.0 14.0 0.00 0.00 0.00 55 1013.7
20260506190815 43 295 4.0 14.0 0.00 0.00 0.00 55 1013.7
20260506190310 43 302 4.0 9.0 0.00 0.00 0.00 55 1013.7
20260506190253 43 296 4.0 10.0 0.00 0.00 0.00 56 1013.7
20260506185307 43 292 3.0 10.0 0.00 0.00 0.00 55 1013.7
20260506184802 43 268 3.0 16.0 0.00 0.00 0.00 55 1013.8
20260506184531 43 302 4.0 16.0 0.00 0.00 0.00 56 1013.7
20260506183747 43 236 5.0 16.0 0.00 0.00 0.00 55 1013.7
20260506183243 43 267 5.0 16.0 0.00 0.00 0.00 56 1013.7
20260506182745 43 327 4.0 12.0 0.00 0.00 0.00 56 1013.8
20260506182240 43 290 4.0 16.0 0.00 0.00 0.00 56 1013.8
20260506181734 43 322 4.0 16.0 0.00 0.00 0.00 58 1013.8
20260506181234 42 252 4.0 12.0 0.00 0.00 0.00 57 1013.9
20260506180734 43 285 3.0 11.0 0.00 0.00 0.00 57 1013.9
20260506180235 43 316 4.0 11.0 0.00 0.00 0.00 57 1013.9
20260506175734 43 351 4.0 11.0 0.00 0.00 0.00 59 1013.9
20260506175453 42 325 4.0 12.0 0.00 0.00 0.00 57 1013.9
20260506174731 42 267 4.0 12.0 0.00 0.00 0.00 58 1014.0
20260506174232 42 268 5.0 10.0 0.00 0.00 0.00 59 1013.9
20260506173730 42 296 6.0 15.0 0.00 0.00 0.00 58 1014.0
20260506173228 42 242 4.0 15.0 0.00 0.00 0.00 59 1014.0
20260506172721 42 298 3.0 12.0 0.00 0.00 0.00 57 1014.0
20260506172217 42 254 3.0 12.0 0.00 0.00 0.00 57 1014.0
20260506171717 42 313 3.0 12.0 0.00 0.00 0.00 58 1014.0
20260506171153 41 13 4.0 13.0 0.00 0.00 0.00 58 1014.1
20260506170648 42 333 4.0 13.0 0.00 0.00 0.00 58 1014.2
20260506170150 41 283 5.0 13.0 0.00 0.00 0.00 59 1014.2
20260506165646 41 290 5.0 13.0 0.00 0.00 0.00 58 1014.2
20260506165150 41 307 4.0 10.0 0.00 0.00 0.00 57 1014.3
20260506164644 42 325 4.0 10.0 0.00 0.00 0.00 57 1014.2
20260506164357 42 290 4.0 12.0 0.00 0.00 0.00 57 1014.1
20260506163632 42 306 5.0 12.0 0.00 0.00 0.00 59 1014.2
20260506163132 42 315 4.0 12.0 0.00 0.00 0.00 59 1014.1
20260506162612 41 315 4.0 10.0 0.00 0.00 0.00 60 1014.2
20260506162109 41 287 4.0 10.0 0.00 0.00 0.00 59 1014.2
20260506161610 41 319 3.0 12.0 0.00 0.00 0.00 60 1014.2
20260506161115 41 277 3.0 12.0 0.00 0.00 0.00 59 1014.1
20260506160837 41 313 3.0 8.0 0.00 0.00 0.00 59 1014.2
20260506160540 40 293 3.0 8.0 0.00 0.00 0.00 59 1014.2
20260506155558 40 300 3.0 8.0 0.00 0.00 0.00 61 1014.2
20260506155059 40 321 3.0 8.0 0.00 0.00 0.00 61 1014.2
20260506154552 40 309 4.0 10.0 0.00 0.00 0.00 62 1014.3
20260506154052 40 302 4.0 10.0 0.00 0.00 0.00 60 1014.2
20260506153550 40 313 3.0 10.0 0.00 0.00 0.00 60 1014.2
20260506153048 40 326 3.0 13.0 0.00 0.00 0.00 61 1014.2
20260506152545 40 336 3.0 13.0 0.00 0.00 0.00 61 1014.2
20260506152042 40 300 4.0 13.0 0.00 0.00 0.00 61 1014.1
20260506151540 40 297 4.0 13.0 0.00 0.00 0.00 61 1014.1
20260506151039 40 267 4.0 10.0 0.00 0.00 0.00 62 1014.2
20260506150536 40 296 3.0 10.0 0.00 0.00 0.00 62 1014.1
20260506150304 40 324 3.0 9.0 0.00 0.00 0.00 61 1014.1
20260506145531 40 294 3.0 9.0 0.00 0.00 0.00 63 1014.1
20260506145028 39 292 3.0 10.0 0.00 0.00 0.00 63 1014.1
20260506144530 39 306 3.0 10.0 0.00 0.00 0.00 63 1014.1
20260506144029 39 267 3.0 10.0 0.00 0.00 0.00 62 1014.1
20260506143525 39 236 3.0 10.0 0.00 0.00 0.00 63 1014.1
20260506143027 39 254 3.0 10.0 0.00 0.00 0.00 62 1014.1
20260506142755 39 331 4.0 10.0 0.00 0.00 0.00 63 1014.1
20260506142246 39 312 4.0 10.0 0.00 0.00 0.00 63 1014.0
20260506141524 39 319 3.0 10.0 0.00 0.00 0.00 63 1014.0
20260506141250 39 285 3.0 10.0 0.00 0.00 0.00 64 1014.0
20260506140522 39 314 3.0 9.0 0.00 0.00 0.00 64 1014.0
20260506140251 39 281 3.0 9.0 0.00 0.00 0.00 64 1014.0
20260506135519 38 311 3.0 9.0 0.00 0.00 0.00 64 1013.8
20260506135231 39 306 3.0 9.0 0.00 0.00 0.00 64 1013.9
20260506134509 39 311 3.0 9.0 0.00 0.00 0.00 64 1013.8
20260506134009 39 315 2.0 6.0 0.00 0.00 0.00 65 1013.8
20260506133508 38 324 2.0 7.0 0.00 0.00 0.00 65 1013.7
20260506133452 38 290 2.0 7.0 0.00 0.00 0.00 65 1013.6
20260506132502 38 290 2.0 10.0 0.00 0.00 0.00 66 1013.6
20260506132220 38 290 2.0 10.0 0.00 0.00 0.00 66 1013.6
20260506131457 37 261 3.0 10.0 0.00 0.00 0.00 67 1013.5
20260506130957 37 284 3.0 10.0 0.00 0.00 0.00 69 1013.4
20260506130447 36 270 2.0 6.0 0.00 0.00 0.00 69 1013.3
20260506125947 36 293 2.0 6.0 0.00 0.00 0.00 70 1013.2
20260506125444 35 295 2.0 5.0 0.00 0.00 0.00 71 1013.1
20260506124942 35 324 2.0 5.0 0.00 0.00 0.00 71 1013.1
20260506124434 34 286 1.0 4.0 0.00 0.00 0.00 73 1013.1
20260506124158 33 263 1.0 4.0 0.00 0.00 0.00 74 1013.0
20260506123434 33 273 1.0 4.0 0.00 0.00 0.00 74 1013.1
20260506122924 33 274 1.0 3.0 0.00 0.00 0.00 74 1013.1
20260506122645 32 277 1.0 3.0 0.00 0.00 0.00 74 1013.1
20260506121920 32 277 1.0 3.0 0.00 0.00 0.00 74 1013.0
20260506121411 32 275 1.0 6.0 0.00 0.00 0.00 74 1012.9
20260506120905 32 275 1.0 6.0 0.00 0.00 0.00 74 1012.9
20260506120405 32 269 1.0 6.0 0.00 0.00 0.00 75 1012.8
20260506115855 32 271 1.0 6.0 0.00 0.00 0.00 75 1012.8
20260506115352 32 257 1.0 4.0 0.00 0.00 0.00 75 1012.8
20260506114846 32 257 1.0 4.0 0.00 0.00 0.00 75 1012.7
20260506114329 32 250 1.0 3.0 0.00 0.00 0.00 75 1012.6
20260506113826 32 251 1.0 3.0 0.00 0.00 0.00 75 1012.5
20260506113329 32 251 1.0 5.0 0.00 0.00 0.00 76 1012.5
20260506112825 32 251 1.0 5.0 0.00 0.00 0.00 75 1012.5
20260506112316 32 251 1.0 5.0 0.00 0.00 0.00 75 1012.5
20260506111816 31 251 2.0 5.0 0.00 0.00 0.00 75 1012.6
20260506111309 32 250 2.0 6.0 0.00 0.00 0.00 75 1012.6
20260506110803 32 250 2.0 6.0 0.00 0.00 0.00 75 1012.6
20260506110302 32 252 1.0 4.0 0.00 0.00 0.00 75 1012.6
20260506105750 32 249 1.0 4.0 0.00 0.00 0.00 75 1012.5
20260506105242 32 247 1.0 4.0 0.00 0.00 0.00 75 1012.5
20260506105006 32 248 1.0 4.0 0.00 0.00 0.00 75 1012.4
20260506104501 32 248 1.0 3.0 0.00 0.00 0.00 75 1012.2
20260506103737 32 248 1.0 3.0 0.00 0.00 0.00 74 1012.1
20260506103237 32 248 1.0 3.0 0.00 0.00 0.00 74 1012.0
20260506102738 32 248 1.0 3.0 0.00 0.00 0.00 74 1012.0
20260506102239 33 248 0.0 2.0 0.00 0.00 0.00 73 1012.0
20260506101737 33 248 0.0 2.0 0.00 0.00 0.00 74 1011.9
20260506101459 33 248 0.0 2.0 0.00 0.00 0.00 73 1011.9
20260506100944 33 248 0.0 2.0 0.00 0.00 0.00 74 1012.0
20260506100211 33 248 1.0 3.0 0.00 0.00 0.00 74 1012.0
20260506095649 33 248 1.0 3.0 0.00 0.00 0.00 74 1012.0
20260506095146 33 248 1.0 4.0 0.00 0.00 0.00 74 1012.0
20260506094645 33 247 1.0 4.0 0.00 0.00 0.00 74 1012.1
20260506094144 33 296 1.0 3.0 0.00 0.00 0.00 74 1012.2
20260506093645 33 296 0.0 3.0 0.00 0.00 0.00 74 1012.1
20260506093137 33 296 0.0 3.0 0.00 0.00 0.00 74 1012.1
20260506092618 33 298 0.0 2.0 0.00 0.00 0.00 74 1012.1
20260506092109 33 298 0.0 1.0 0.00 0.00 0.00 73 1012.1
20260506091604 33 297 0.0 1.0 0.00 0.00 0.00 73 1012.0
20260506091102 33 297 0.0 1.0 0.00 0.00 0.00 73 1012.0
20260506090557 33 298 0.0 2.0 0.00 0.00 0.00 73 1011.8
20260506090049 33 298 0.0 2.0 0.00 0.00 0.00 72 1011.8
20260506085541 33 298 0.0 2.0 0.00 0.00 0.00 72 1011.8
20260506085037 33 298 1.0 2.0 0.00 0.00 0.00 72 1011.6
20260506084736 33 315 1.0 3.0 0.00 0.00 0.00 72 1011.6
20260506084011 33 314 1.0 2.0 0.00 0.00 0.00 72 1011.7
20260506083508 33 315 0.0 2.0 0.00 0.00 0.00 72 1011.7
20260506083233 33 315 0.0 2.0 0.00 0.00 0.00 73 1011.7
20260506082458 33 315 1.0 2.0 0.00 0.00 0.00 73 1011.7
20260506081934 33 315 0.0 2.0 0.00 0.00 0.00 73 1011.8
20260506081434 33 315 0.0 1.0 0.00 0.00 0.00 73 1011.8
20260506080913 33 315 0.0 1.0 0.00 0.00 0.00 73 1011.7
20260506080354 33 315 0.0 1.0 0.00 0.00 0.00 73 1011.7
20260506073321 31 315 0.0 0.0 0.00 0.00 0.00 75 1011.5
20260506072816 31 315 0.0 0.0 0.00 0.00 0.00 75 1011.5
20260506072313 32 315 0.0 0.0 0.00 0.00 0.00 75 1011.5
20260506071807 32 315 0.0 0.0 0.00 0.00 0.00 75 1011.5
20260506071511 32 315 0.0 0.0 0.00 0.00 0.00 74 1011.6
20260506071011 32 315 0.0 0.0 0.00 0.00 0.00 73 1011.6
20260506070239 32 315 0.0 0.0 0.00 0.00 0.00 73 1011.6
20260506062058 35 315 0.0 0.0 0.00 0.00 0.00 68 1011.7
20260506061540 35 315 0.0 0.0 0.00 0.00 0.00 67 1011.7
20260506061026 35 315 0.0 1.0 0.00 0.00 0.00 67 1011.7
20260506060750 35 315 0.0 1.0 0.00 0.00 0.00 66 1011.6
20260506051147 37 317 2.0 4.0 0.00 0.00 0.00 63 1011.0
20260506050419 38 314 2.0 5.0 0.00 0.00 0.00 63 1011.0
20260506044914 38 316 2.0 9.0 0.00 0.00 0.00 62 1010.9
20260506044414 38 315 2.0 9.0 0.00 0.00 0.00 62 1011.0
20260506043908 38 319 2.0 8.0 0.00 0.00 0.00 62 1011.0
20260506043401 39 320 2.0 8.0 0.00 0.00 0.00 62 1010.9
20260506042900 39 306 2.0 5.0 0.00 0.00 0.00 61 1010.9
20260506042353 39 301 2.0 4.0 0.00 0.00 0.00 61 1010.9
20260506041840 39 306 1.0 4.0 0.00 0.00 0.00 61 1010.9
20260506041342 40 290 1.0 4.0 0.00 0.00 0.00 60 1010.9
20260506040839 40 310 2.0 4.0 0.00 0.00 0.00 60 1010.8
20260506040335 40 310 2.0 5.0 0.00 0.00 0.00 59 1010.7
20260506035834 40 311 2.0 5.0 0.00 0.00 0.00 59 1010.7
20260506035329 40 298 2.0 5.0 0.00 0.00 0.00 58 1010.7
20260506035048 40 302 2.0 5.0 0.00 0.00 0.00 58 1010.7
20260506034327 40 307 2.0 7.0 0.00 0.00 0.00 58 1010.6
20260506033825 41 312 2.0 7.0 0.00 0.00 0.00 58 1010.5
20260506033321 41 302 2.0 6.0 0.00 0.00 0.00 57 1010.4
20260506032815 41 316 3.0 8.0 0.00 0.00 0.00 57 1010.4
20260506032534 41 308 3.0 8.0 0.00 0.00 0.00 57 1010.4
20260506031811 41 313 3.0 8.0 0.00 0.00 0.00 58 1010.4
20260506031300 41 323 3.0 11.0 0.00 0.00 0.00 58 1010.3
20260506030755 41 302 3.0 11.0 0.00 0.00 0.00 57 1010.3
20260506030257 42 325 3.0 9.0 0.00 0.00 0.00 57 1010.3